Regional Weather Roundup
Issued by NWS Huntsville, AL

Home | Current Version | Previous Version | Text Only | Print | Product List | Glossary On
Versions: 1 2 3 4 5 6 7 8 9 10 11 12 13 14 15 16 17 18 19 20 21 22 23 24 25 26 27
000
ASUS44 KHUN 250110
RWRHUN

WEATHER ROUNDUP FOR THE TENNESSEE VALLEY
NATIONAL WEATHER SERVICE HUNTSVILLE AL
800 PM CDT FRI OCT 24 2014

ALZ001>004-250200-
NORTHWEST ALABAMA

CITY           SKY/WX    TMP DP  RH WIND       PRES   REMARKS
COURTLAND HCN    N/A     55 N/A N/A CALM        N/A
RUSSELLVILLE     N/A     54 N/A N/A MISG        N/A
SHOALS AIRPORT CLEAR     60  47  61 CALM      30.09S
SHOALS TVA RES   N/A     55 N/A N/A MISG        N/A
$$

ALZ005>007-016-250200-
NORTH CENTRAL ALABAMA

CITY           SKY/WX    TMP DP  RH WIND       PRES   REMARKS
CULLMAN AG STN   N/A     50 N/A N/A CALM        N/A
DECATUR AP     CLEAR     53  46  77 CALM      30.08R
HUNTSVILLE AP  PTCLDY    62  40  44 N5        30.07R
HUN NWS/UAH      N/A     58  42  54 CALM        N/A
MERIDIANVILLE  PTCLDY    52  43  71 CALM      30.08S
VINEMONT AP    FAIR      50  44  81 CALM      30.10S
$$

ALZ008>010-250200-
NORTHEAST ALABAMA

CITY           SKY/WX    TMP DP  RH WIND       PRES   REMARKS
ALBERTVILLE    PTCLDY    55  46  71 N5        30.07R
FORT PAYNE     CLEAR     50  43  76 CALM      30.07R
SCOTTSBORO AP    N/A     54  46  76 CALM      30.08R
SCOTTSBORO HCN   N/A     52 N/A N/A MISG        N/A
VALLEY HEAD      N/A     50 N/A N/A MISG        N/A
$$

TNZ076-096-097-250200-
SOUTHEASTERN MIDDLE TENNESSEE

CITY           SKY/WX    TMP DP  RH WIND       PRES   REMARKS
TULLAHOMA      CLEAR     48  43  81 CALM      30.10S
WINCHESTER     CLEAR     48  43  81 CALM      30.09S
$$

...SURROUNDING SITES...

CITY           SKY/WX    TMP DP  RH WIND       PRES   REMARKS
ATLANTA        PTCLDY    62  42  47 NW7       30.03R
ANNISTON       CLEAR     54  46  74 CALM      30.05R
BIRMINGHAM     PTCLDY    57  44  62 NE3       30.08R
CHATTANOOGA    PTCLDY    54  46  74 NW5       30.06R
CORINTH        FAIR      57  54  88 CALM      30.08S
DALTON         CLEAR     52  48  87 CALM      30.05S
GADSDEN        PTCLDY    50  43  76 CALM      30.06R
GOLDEN TRNGL   CLEAR     57  45  62 CALM      30.09R
HALEYVILLE     FAIR      52  47  83 CALM      30.11S
JACKSON TN     CLEAR     56  53  90 CALM      30.08S
MEMPHIS        PTCLDY    62  56  80 SW3       30.09R
NASHVILLE      PTCLDY    60  45  57 CALM      30.08S
OXFORD MS      FAIR      55  54  94 CALM      30.12R
ROME             N/A     54  44  69 CALM      30.04R
SAVANNAH       CLEAR     54  52  94 CALM      30.09S
TUPELO         CLEAR     58  52  80 CALM      30.09R
TUSCALOOSA     CLEAR     60  48  64 CALM      30.08R
$$

...GULF COAST WEATHER...

CITY           SKY/WX    TMP DP  RH WIND       PRES   REMARKS
GULFPORT       CLEAR     63  50  62 NW3       30.06R
PASCAGOULA     CLEAR     53  49  86 CALM      30.06R
MOBILE         CLEAR     58  49  72 CALM      30.06R
GULF SHORES    CLEAR     63  50  62 CALM      30.04R
PENSACOLA      CLEAR     54  52  93 NW3       30.03R
DESTIN         CLEAR     64  52  64 CALM      30.02R
PANAMA CITY    CLEAR     59  53  79 CALM      30.01R
APPALACHICOLA  CLEAR     62  53  72 CALM      30.00R
$$




USA.gov is the U.S. government's official web portal to all federal, state and local government web resources and services.